カタログに戻る

METEOSAT 9

MSG 2

運用中気象GEO
NORAD 28912·PAYLOAD·🇪🇺 EU

打ち上げ Dec 21, 2005 から Guiana Space Centre

Loading…

TLE

最新Source: Space-Track

元期: Sep 14, 2026, 14:01 UTC

1 28912U 05049B   26257.58411439  .00000118  00000-0  00000-0 0  9997
2 28912   9.5602  53.2586 0001968 349.4951 206.7994  1.00275087  7895

AllMySatでMETEOSAT 9をリアルタイム追跡

Download on the App Store